TimeCDT,TemperatureF,Dew PointF,Humidity,Sea Level PressureIn,VisibilityMPH,Wind Direction,Wind SpeedMPH,Gust SpeedMPH,PrecipitationIn,Events,Conditions,WindDirDegrees,DateUTC
12:07 AM,39.2,37.4,93,30.09,7.0,NNE,12.7,-,0.03,Rain,Rain,30,2011-11-03 05:07:00
12:54 AM,39.9,37.0,89,30.10,6.0,NNE,13.8,-,0.14,Rain,Rain,20,2011-11-03 05:54:00
1:31 AM,39.2,37.4,93,30.06,8.0,NNE,16.1,-,0.07,Rain,Rain,30,2011-11-03 06:31:00
1:54 AM,41.0,37.9,89,30.07,8.0,NNE,13.8,-,0.11,Rain,Rain,30,2011-11-03 06:54:00
2:09 AM,41.0,37.4,87,30.06,7.0,NE,12.7,-,0.05,Rain,Rain,40,2011-11-03 07:09:00
2:54 AM,42.1,39.0,89,30.09,7.0,NNE,12.7,-,0.12,Rain,Light Rain,30,2011-11-03 07:54:00
3:25 AM,41.0,39.2,93,30.05,6.0,NE,13.8,-,0.06,Rain,Rain,40,2011-11-03 08:25:00
3:54 AM,41.0,39.2,93,30.03,8.0,NNE,17.3,24.2,N/A,Rain,Rain,30,2011-11-03 08:54:00
4:01 AM,42.8,39.2,87,30.03,7.0,NNE,16.1,-,0.01,Rain,Rain,30,2011-11-03 09:01:00
4:08 AM,42.8,39.2,87,30.02,6.0,NNE,19.6,-,0.03,Rain,Rain,30,2011-11-03 09:08:00
4:48 AM,42.8,39.2,87,30.01,10.0,NE,21.9,29.9,0.07,Rain,Light Rain,40,2011-11-03 09:48:00
4:54 AM,43.0,39.0,86,30.02,10.0,NE,20.7,27.6,0.08,Rain,Light Rain,40,2011-11-03 09:54:00
5:54 AM,43.0,39.9,89,30.02,10.0,NNE,20.7,25.3,0.03,Rain,Light Rain,30,2011-11-03 10:54:00
6:54 AM,44.1,39.9,85,30.03,10.0,NE,15.0,23.0,0.00,,Overcast,50,2011-11-03 11:54:00
7:45 AM,44.6,39.2,81,30.03,10.0,NE,17.3,28.8,N/A,,Overcast,50,2011-11-03 12:45:00
7:54 AM,44.1,39.0,82,30.04,10.0,NE,16.1,26.5,N/A,,Overcast,50,2011-11-03 12:54:00
8:54 AM,44.1,39.9,85,30.08,6.0,NE,16.1,-,0.01,Rain,Light Rain,40,2011-11-03 13:54:00
9:31 AM,44.6,37.4,76,30.05,8.0,NE,23.0,33.4,0.01,,Light Drizzle,50,2011-11-03 14:31:00
9:54 AM,44.1,37.0,76,30.10,10.0,ENE,18.4,32.2,0.01,Rain,Light Rain,60,2011-11-03 14:54:00
10:54 AM,44.1,37.9,79,30.08,10.0,NE,23.0,33.4,0.00,Rain,Light Rain,40,2011-11-03 15:54:00
11:24 AM,44.6,39.2,81,30.10,10.0,NE,15.0,25.3,0.00,Rain,Light Rain,40,2011-11-03 16:24:00
11:54 AM,45.0,39.0,80,30.11,10.0,NNE,19.6,26.5,0.00,,Overcast,30,2011-11-03 16:54:00
12:08 PM,46.4,39.2,76,30.09,10.0,NE,24.2,28.8,N/A,,Overcast,40,2011-11-03 17:08:00
12:54 PM,46.0,37.0,71,30.11,10.0,NE,17.3,28.8,N/A,,Overcast,40,2011-11-03 17:54:00
1:54 PM,46.0,36.0,68,30.11,10.0,NNE,19.6,-,N/A,,Overcast,30,2011-11-03 18:54:00
2:54 PM,48.0,36.0,63,30.10,10.0,NE,19.6,33.4,N/A,,Overcast,40,2011-11-03 19:54:00
3:54 PM,46.9,33.1,59,30.12,10.0,NE,20.7,28.8,N/A,,Overcast,40,2011-11-03 20:54:00
4:54 PM,46.9,34.0,61,30.14,10.0,NNE,18.4,24.2,N/A,,Overcast,20,2011-11-03 21:54:00
5:54 PM,45.0,34.0,65,30.16,10.0,NNE,13.8,24.2,N/A,,Overcast,20,2011-11-03 22:54:00
6:54 PM,45.0,36.0,71,30.20,10.0,NNE,18.4,24.2,N/A,,Overcast,20,2011-11-03 23:54:00
7:54 PM,43.0,35.1,74,30.20,10.0,NNE,15.0,-,N/A,,Overcast,20,2011-11-04 00:54:00
8:54 PM,42.8,33.8,70,30.20,10.0,NNE,16.1,-,N/A,,Mostly Cloudy,30,2011-11-04 01:54:00
9:54 PM,39.9,32.0,73,30.23,10.0,NNE,12.7,-,N/A,,Scattered Clouds,20,2011-11-04 02:54:00
10:54 PM,39.0,33.1,79,30.24,10.0,NE,8.1,-,N/A,,Scattered Clouds,40,2011-11-04 03:54:00
11:54 PM,37.0,30.9,79,30.25,10.0,NE,6.9,-,N/A,,Clear,40,2011-11-04 04:54:00